Beverly, MA

9:13 PM EDT on July 27, 2017 (GMT -0400)
Beverly Municipal

Weather History for KBVY - May, 2013

Change the Weather History Date:

Tuesday, May 7, 2013

  Actual Average Record
Temperature  
Mean Temperature 54 °F -  
Max Temperature 68 °F 61 °F 89 °F (2000)
Min Temperature 42 °F 42 °F 12 °F (1995)
Degree Days  
Heating Degree Days 11    
Growing Degree Days 4 (Base 50)    
Moisture  
Dew Point 48 °F    
Average Humidity 78    
Maximum Humidity 93    
Minimum Humidity 54    
Precipitation  
Precipitation 0.00 in - - ()
Sea Level Pressure  
Sea Level Pressure 30.15 in    
Wind  
Wind Speed 3 mph (SSE)    
Max Wind Speed 13 mph    
Max Gust Speed 18 mph    
Visibility 8 miles    
Events Fog    
Averages and records for this station are not official NWS values.
T = Trace of Precipitation, MM = Missing Value Source: NWS Daily Summary

Daily Weather History Graph

Daily Weather History Graph

Search for Another Location

Airport or City:

Trip Planner

Search our weather history database for the weather conditions in past years. The results will help you decide how hot, cold, wet, or windy it might be!

Date:

Astronomy

May. 07, 2013 Rise Set
Actual Time 5:30 AM EDT 7:50 PM EDT
Civil Twilight 4:58 AM EDT 8:22 PM EDT
Nautical Twilight 4:20 AM EDT 9:01 PM EDT
Astronomical Twilight 3:36 AM EDT 9:44 PM EDT
Moon 4:05 AM EDT (5/7) 5:45 PM EDT (5/7)
Length of Visible Light 15h 23m
Length of Day
14h 20m
Waning Crescent, 5% of the Moon is Illuminated
May 7
Waning Crescent
May 9
New
May 18
First Quarter
May 25
Full
May 31
Last Quarter

Hourly Weather History & Observations

Time (EDT) Temp. Dew Point Humidity Pressure Visibility Wind Dir Wind Speed Gust Speed Precip Events Conditions
12:21 AM 46.4 °F 44.6 °F 93% 30.17 in 0.8 mi Calm Calm - N/A   Clear
12:34 AM 46.4 °F 44.6 °F 93% 30.17 in 2.0 mi Calm Calm - N/A   Clear
12:41 AM 46.4 °F 44.6 °F 93% 30.17 in 8.0 mi Calm Calm - N/A   Clear
12:53 AM 46.9 °F 44.1 °F 90% 30.16 in 10.0 mi Calm Calm - N/A   Clear
1:53 AM 46.0 °F 43.0 °F 89% 30.15 in 7.0 mi Calm Calm - N/A   Clear
2:40 AM 46.4 °F 42.8 °F 87% 30.16 in 1.5 mi Calm Calm - N/A   Clear
2:48 AM 44.6 °F 41.0 °F 87% 30.16 in 0.5 mi Calm Calm - N/A Fog Fog
2:53 AM 44.1 °F 41.0 °F 89% 30.15 in 0.5 mi Calm Calm - N/A Fog Fog
3:04 AM 42.8 °F 41.0 °F 93% 30.16 in 2.5 mi Calm Calm - N/A   Clear
3:11 AM 44.6 °F 41.0 °F 87% 30.16 in 8.0 mi Calm Calm - N/A   Clear
3:53 AM 45.0 °F 43.0 °F 93% 30.15 in 10.0 mi Calm Calm - N/A   Clear
4:53 AM 44.1 °F 41.0 °F 89% 30.15 in 10.0 mi Calm Calm - N/A   Clear
5:53 AM 44.6 °F 42.8 °F 93% 30.16 in 9.0 mi Calm Calm - N/A   Clear
6:53 AM 48.9 °F 46.9 °F 93% 30.17 in 9.0 mi Calm Calm - N/A   Partly Cloudy
7:53 AM 55.9 °F 50.0 °F 80% 30.17 in 10.0 mi Calm Calm - N/A   Clear
8:53 AM 61.0 °F 51.1 °F 70% 30.17 in 10.0 mi South 4.6 mph - N/A   Clear
9:53 AM 66.0 °F 50.0 °F 56% 30.16 in 10.0 mi South 4.6 mph - N/A   Clear
10:53 AM 66.9 °F 50.0 °F 54% 30.17 in 10.0 mi SE 10.4 mph - N/A   Clear
11:53 AM 66.9 °F 50.0 °F 54% 30.16 in 10.0 mi SE 10.4 mph - N/A   Partly Cloudy
12:53 PM 66.9 °F 51.1 °F 57% 30.15 in 10.0 mi SE 11.5 mph - N/A   Clear
1:53 PM 66.0 °F 50.0 °F 56% 30.14 in 10.0 mi SSE 12.7 mph - N/A   Clear
2:53 PM 66.9 °F 55.0 °F 66% 30.12 in 10.0 mi ESE 11.5 mph - N/A   Clear
3:53 PM 64.0 °F 57.0 °F 78% 30.11 in 10.0 mi SE 10.4 mph - N/A   Clear
4:53 PM 63.0 °F 55.0 °F 75% 30.11 in 10.0 mi SSE 10.4 mph 18.4 mph N/A   Clear
5:53 PM 63.0 °F 55.0 °F 75% 30.09 in 10.0 mi SE 8.1 mph - N/A   Clear
6:53 PM 63.0 °F 54.0 °F 72% 30.10 in 10.0 mi SE 5.8 mph - N/A   Clear
7:53 PM 61.0 °F 53.1 °F 75% 30.11 in 10.0 mi SSE 5.8 mph - N/A   Clear
8:53 PM 66.0 °F 53.1 °F 63% 30.13 in 10.0 mi South 8.1 mph - N/A   Clear
9:53 PM 64.0 °F 53.1 °F 67% 30.14 in 10.0 mi South 9.2 mph - N/A   Clear
10:53 PM 62.1 °F 53.1 °F 72% 30.15 in 10.0 mi South 5.8 mph - N/A   Clear
11:53 PM 61.0 °F 53.1 °F 75% 30.16 in 10.0 mi South 6.9 mph - N/A   Clear